DLH4AB LKPR-EDDB

Flight info

Callsign DLH4AB
Flight time N/A
Altitude 19000
Route VENOX4B/30 VENOX DCT DEKOV/N0383F200 Y621 ESLOR M748 OSKAN T203 ATGUP
Aircraft A20N/M-SDE2E3FGHIRWXY/LB1

Departure

Time N/A
Airport Václav Havel Airport Prague (LKPR)

Arrival

Time 2026-04-30 18:06
Airport Berlin Brandenburg Airport (EDDB)
Time Latitude Longitude Altitude Speed Heading
2026-04-30 17:39 51.02494 14.18903 15989 ft 352 kts 355°
2026-04-30 17:41 51.20223 14.04952 15991 ft 354 kts 351°
2026-04-30 17:42 51.25019 14.03190 15990 ft 354 kts 351°
2026-04-30 17:42 51.32236 14.00602 15991 ft 354 kts 351°
2026-04-30 17:43 51.37037 13.98882 15988 ft 354 kts 351°
2026-04-30 17:44 51.44263 13.96289 15989 ft 354 kts 351°
2026-04-30 17:44 51.51471 13.93695 15988 ft 353 kts 351°
2026-04-30 17:46 51.63435 13.89369 15753 ft 352 kts 351°
2026-04-30 17:47 51.73169 13.85840 11355 ft 377 kts 351°
2026-04-30 17:48 51.82672 13.82340 8890 ft 301 kts 351°
2026-04-30 17:48 51.88969 13.80058 5016 ft 317 kts 348°
2026-04-30 17:49 51.96634 13.79500 3983 ft 252 kts
2026-04-30 17:50 52.03638 13.80686 3979 ft 253 kts
2026-04-30 17:51 52.08906 13.81569 3980 ft 253 kts
2026-04-30 17:52 52.14171 13.82452 3977 ft 253 kts
2026-04-30 17:53 52.22953 13.83929 3974 ft 252 kts
2026-04-30 17:54 52.28863 13.89652 3967 ft 255 kts 40°
2026-04-30 17:55 52.35384 13.93424 3798 ft 253 kts 12°
2026-04-30 17:56 52.39241 14.01389 3973 ft 259 kts 75°
2026-04-30 17:57 52.42870 14.07088 3982 ft 251 kts 14°
2026-04-30 17:58 52.48000 14.06370 3961 ft 251 kts 351°
2026-04-30 17:59 52.53989 14.04594 3892 ft 256 kts 284°
2026-04-30 18:00 52.52010 13.93121 3836 ft 265 kts 249°
2026-04-30 18:00 52.48905 13.85650 3495 ft 267 kts 229°
2026-04-30 18:01 52.46593 13.80888 3217 ft 265 kts 239°
2026-04-30 18:02 52.43910 13.72961 2671 ft 264 kts 238°
2026-04-30 18:02 52.41229 13.66896 1806 ft 218 kts 244°
2026-04-30 18:03 52.39630 13.61123 1186 ft 154 kts 253°
2026-04-30 18:04 52.38722 13.56787 701 ft 125 kts 252°
2026-04-30 18:05 52.37497 13.51539 169 ft 117 kts 247°
2026-04-30 18:06 52.37126 13.50008 159 ft 26 kts 250°
2026-04-30 18:07 52.36848 13.49447 161 ft 0 kts 219°
2026-04-30 18:09 52.36774 13.49513 161 ft 6 kts 78°
2026-04-30 18:10 52.36806 13.50015 162 ft 9 kts 155°
2026-04-30 18:11 52.36558 13.50248 162 ft 11 kts 158°
2026-04-30 18:11 52.36517 13.50404 162 ft 12 kts 53°
2026-04-30 18:12 52.36549 13.50484 162 ft 0 kts 64°